sat.trackr.live / text

‹ back to catalog

STARLINK-5947

NORAD 55989 · 2023-042D

PAYLOAD ACTIVE UNKNOWN

§ Identity

Operator
Country
US
Launch date
2023-03-24
Launch site
AFETR
Launch vehicle
Mass (kg)
RCS (m²)

Purposes: comms

External: N2YO · Heavens-Above · Gunter

§ Orbital elements

Epoch: 2026-05-24T22:54:05.736384Z

Period
94.27 min
Inclination
43.0041°
Eccentricity
0.0001400
Mean motion
15.27586591 rev/d
Perigee alt
482.1 km
Apogee alt
484.0 km
Semi-major
6,861.2 km
B*
1.3922e-5
RAAN
348.8684°
Arg perigee
278.4209°
Mean anomaly
81.6484°
Rev number
17,453

§ Raw data

STARLINK-59471 55989U 23042D   26144.95423306  .00000121  00000+0  13922-4 0  99902 55989  43.0041 348.8684 0001400 278.4209  81.6484 15.27586591174538

JSON: /api/v1/satellites/55989 · /tle

For live sub-satellite position, see the globe view (requires WebGL).

§ Visibility from observer

Set your observer location to see the next 7 days of passes ≥ 10°. The values pass through the URL so the page stays shareable.

No JS? Fill the form by hand. The geolocation button needs JavaScript.